Check out our new BloomSky Weather System.

Active alerts

Houston, TX
  Details for Houston, TX River Flood Warning  +1 additional alert
Fort Bend, TX
  Details for Fort Bend, TX River Flood Warning  +2 additional alerts


Thunder radar  blitzortung!


Rain radar more information rain snow radar


Visit our other weather sites:

Template documentation
and downloads

And another site



Weather Underground History page Text

Daily Summary for March 21, 2017 Units:  English    Metric   Both
« Previous Day
Next Day »
Daily Weekly Monthly Yearly Custom
  High: Low: Average:
Temperature: TemperatureF °F 62.1 °F 72.9 °F
Dew Point: DewpointF °F 58.3 °F 62.9 °F
Humidity: Humidity % 42 % 74 %
Wind Speed: WindSpeedMPH mph 0.0 mph 3.2 mph
Wind Gust: WindSpeedGustMPH mph - -
Wind:- - South
Pressure: PressureIn in 30.01 in -
Precipitation: 0.01 in    
Historical Graphs
 
 
Tabular Data for March 21, 2017
Time Temperature Dew Point Pressure Wind Wind Speed Wind Gust Humidity Rainfall Rate (Hourly)
TemperatureF °F DewpointF °F PressureIn in Calm     Humidity % HourlyPrecipIn in
00:02 68.5 °F 65.1 °F 30.11 in SSW 2.0 mph 8.0 mph 89 % 0.00 in
00:07 68.4 °F 64.9 °F 30.10 in SSE 2.0 mph 8.0 mph 89 % 0.00 in
00:12 68.2 °F 64.8 °F 30.10 in SW 3.0 mph 6.0 mph 89 % 0.00 in
00:17 68.0 °F 64.9 °F 30.10 in South 3.0 mph 5.0 mph 90 % 0.00 in
00:22 67.8 °F 64.8 °F 30.10 in South 3.0 mph 4.0 mph 90 % 0.00 in
00:27 67.6 °F 64.6 °F 30.10 in South 1.0 mph 4.0 mph 90 % 0.00 in
00:32 67.6 °F 64.9 °F 30.09 in South 4.0 mph 7.0 mph 91 % 0.00 in
00:37 67.5 °F 64.8 °F 30.09 in South 2.0 mph 7.0 mph 91 % 0.00 in
00:42 67.5 °F 64.8 °F 30.09 in SSE 2.0 mph 7.0 mph 91 % 0.00 in
00:47 67.3 °F 64.6 °F 30.09 in South 2.0 mph 5.0 mph 91 % 0.00 in
00:52 67.3 °F 64.6 °F 30.09 in SE 1.0 mph 4.0 mph 91 % 0.00 in
00:57 67.1 °F 64.4 °F 30.09 in South 1.0 mph 4.0 mph 91 % 0.00 in
01:02 66.9 °F 64.6 °F 30.09 in SSE 1.0 mph 4.0 mph 92 % 0.00 in
01:07 66.7 °F 64.4 °F 30.09 in SSW 1.0 mph 3.0 mph 92 % 0.00 in
01:12 66.7 °F 64.4 °F 30.09 in South 1.0 mph 3.0 mph 92 % 0.00 in
01:17 66.4 °F 64.0 °F 30.09 in SSE 1.0 mph 2.0 mph 92 % 0.00 in
01:22 66.4 °F 64.2 °F 30.09 in SE 1.0 mph 2.0 mph 93 % 0.00 in
01:27 66.4 °F 64.2 °F 30.09 in Calm   3.0 mph 93 % 0.00 in
01:32 66.4 °F 64.2 °F 30.09 in South 2.0 mph 3.0 mph 93 % 0.00 in
01:37 66.4 °F 64.6 °F 30.09 in South 1.0 mph 4.0 mph 94 % 0.00 in
01:42 66.2 °F 64.4 °F 30.09 in South 1.0 mph 4.0 mph 94 % 0.00 in
01:47 66.0 °F 64.2 °F 30.09 in SE 2.0 mph 4.0 mph 94 % 0.00 in
01:52 66.0 °F 64.2 °F 30.09 in SSE 3.0 mph 4.0 mph 94 % 0.00 in
01:57 66.0 °F 64.2 °F 30.09 in SSE 4.0 mph 5.0 mph 94 % 0.00 in
02:02 66.0 °F 64.2 °F 30.09 in SSE 2.0 mph 5.0 mph 94 % 0.00 in
02:08 66.0 °F 64.2 °F 30.09 in SSW 3.0 mph 5.0 mph 94 % 0.00 in
02:13 65.8 °F 64.0 °F 30.09 in SSE 2.0 mph 5.0 mph 94 % 0.00 in
02:18 65.8 °F 64.0 °F 30.08 in SSE 2.0 mph 4.0 mph 94 % 0.00 in
02:23 65.8 °F 64.0 °F 30.08 in SSW 1.0 mph 4.0 mph 94 % 0.00 in
02:28 65.7 °F 64.2 °F 30.08 in Calm   5.0 mph 95 % 0.00 in
02:33 65.7 °F 64.2 °F 30.08 in SSW 2.0 mph 5.0 mph 95 % 0.00 in
02:38 65.7 °F 64.2 °F 30.08 in South 1.0 mph 5.0 mph 95 % 0.00 in
02:43 65.5 °F 63.7 °F 30.09 in South 2.0 mph 4.0 mph 94 % 0.00 in
02:48 65.5 °F 64.0 °F 30.08 in South 2.0 mph 4.0 mph 95 % 0.00 in
02:53 65.3 °F 63.9 °F 30.08 in Calm   3.0 mph 95 % 0.00 in
02:58 65.1 °F 63.7 °F 30.08 in Calm   3.0 mph 95 % 0.00 in
03:03 64.9 °F 63.5 °F 30.08 in SSE 1.0 mph 3.0 mph 95 % 0.00 in
03:08 64.8 °F 63.3 °F 30.08 in SSE 1.0 mph 2.0 mph 95 % 0.00 in
03:13 64.8 °F 63.3 °F 30.08 in SSW 1.0 mph 2.0 mph 95 % 0.00 in
03:18 64.6 °F 63.1 °F 30.08 in SSE 1.0 mph 2.0 mph 95 % 0.00 in
03:23 64.6 °F 63.1 °F 30.08 in SSE 1.0 mph 2.0 mph 95 % 0.00 in
03:28 64.4 °F 63.0 °F 30.07 in SSE 1.0 mph 2.0 mph 95 % 0.00 in
03:33 64.4 °F 63.0 °F 30.07 in SSE 1.0 mph 3.0 mph 95 % 0.00 in
03:38 64.2 °F 62.8 °F 30.07 in SSE 2.0 mph 3.0 mph 95 % 0.00 in
03:48 64.0 °F 63.0 °F 30.07 in South 2.0 mph 2.0 mph 96 % 0.00 in
03:53 64.0 °F 63.0 °F 30.07 in Calm   2.0 mph 96 % 0.00 in
03:58 63.9 °F 62.8 °F 30.06 in SSW 1.0 mph 2.0 mph 96 % 0.00 in
04:03 63.9 °F 62.8 °F 30.06 in Calm   2.0 mph 96 % 0.00 in
04:08 63.9 °F 62.8 °F 30.06 in SSE 1.0 mph 2.0 mph 96 % 0.00 in
04:13 63.9 °F 62.8 °F 30.06 in SSE 1.0 mph 2.0 mph 96 % 0.00 in
04:19 63.7 °F 62.6 °F 30.06 in SE 1.0 mph 2.0 mph 96 % 0.00 in
04:24 63.9 °F 62.8 °F 30.06 in South 2.0 mph 2.0 mph 96 % 0.00 in
04:29 63.7 °F 62.6 °F 30.06 in Calm   2.0 mph 96 % 0.00 in
04:34 63.7 °F 62.6 °F 30.06 in Calm   2.0 mph 96 % 0.00 in
04:39 63.3 °F 62.2 °F 30.06 in SE 2.0 mph 2.0 mph 96 % 0.00 in
04:44 63.5 °F 62.4 °F 30.06 in Calm   2.0 mph 96 % 0.00 in
04:49 63.3 °F 62.2 °F 30.07 in SSE 1.0 mph 2.0 mph 96 % 0.00 in
04:54 63.3 °F 62.2 °F 30.06 in Calm   2.0 mph 96 % 0.00 in
04:59 63.3 °F 62.4 °F 30.07 in SE 1.0 mph 2.0 mph 97 % 0.00 in
05:04 63.3 °F 62.4 °F 30.07 in Calm   2.0 mph 97 % 0.00 in
05:09 63.1 °F 62.2 °F 30.07 in SSW 1.0 mph 2.0 mph 97 % 0.00 in
05:14 63.1 °F 62.2 °F 30.07 in South 1.0 mph 2.0 mph 97 % 0.00 in
05:19 63.1 °F 62.2 °F 30.07 in SSW 1.0 mph 2.0 mph 97 % 0.00 in
05:24 63.0 °F 62.1 °F 30.07 in Calm   2.0 mph 97 % 0.00 in
05:29 62.8 °F 61.9 °F 30.07 in Calm   2.0 mph 97 % 0.00 in
05:34 62.6 °F 61.7 °F 30.07 in SSW 1.0 mph 2.0 mph 97 % 0.00 in
05:39 62.6 °F 61.7 °F 30.07 in SSE 1.0 mph 2.0 mph 97 % 0.00 in
05:44 62.6 °F 61.7 °F 30.08 in SSE 1.0 mph 2.0 mph 97 % 0.00 in
05:49 62.4 °F 61.5 °F 30.08 in Calm   2.0 mph 97 % 0.00 in
05:54 62.4 °F 61.5 °F 30.08 in SSW 1.0 mph 2.0 mph 97 % 0.00 in
05:59 62.4 °F 61.5 °F 30.08 in SSW 1.0 mph 2.0 mph 97 % 0.00 in
06:04 62.4 °F 61.5 °F 30.08 in SE 1.0 mph 1.0 mph 97 % 0.00 in
06:09 62.4 °F 61.9 °F 30.08 in Calm   1.0 mph 98 % 0.00 in
06:14 62.4 °F 61.5 °F 30.08 in Calm   1.0 mph 97 % 0.00 in
06:19 62.4 °F 61.9 °F 30.08 in Calm   1.0 mph 98 % 0.00 in
06:24 62.4 °F 61.9 °F 30.08 in SE 1.0 mph 1.0 mph 98 % 0.00 in
06:29 62.2 °F 61.7 °F 30.09 in Calm   1.0 mph 98 % 0.00 in
06:34 62.2 °F 61.7 °F 30.09 in Calm   1.0 mph 98 % 0.00 in
06:39 62.2 °F 61.7 °F 30.08 in SSE 1.0 mph 1.0 mph 98 % 0.00 in
06:44 62.2 °F 61.7 °F 30.09 in SSE 1.0 mph 1.0 mph 98 % 0.00 in
06:49 62.2 °F 61.7 °F 30.09 in Calm   1.0 mph 98 % 0.00 in
06:54 62.2 °F 61.7 °F 30.09 in SSE 1.0 mph 1.0 mph 98 % 0.00 in
06:59 62.2 °F 61.7 °F 30.09 in Calm   1.0 mph 98 % 0.00 in
07:04 62.1 °F 61.5 °F 30.09 in Calm   1.0 mph 98 % 0.00 in
07:09 62.2 °F 61.7 °F 30.10 in South 1.0 mph 1.0 mph 98 % 0.00 in
07:14 62.2 °F 61.7 °F 30.10 in Calm   1.0 mph 98 % 0.00 in
07:19 62.1 °F 61.5 °F 30.10 in South 1.0 mph 1.0 mph 98 % 0.00 in
07:24 62.1 °F 61.5 °F 30.10 in Calm   1.0 mph 98 % 0.00 in
07:29 62.1 °F 61.5 °F 30.10 in Calm   1.0 mph 98 % 0.00 in
07:34 62.1 °F 61.5 °F 30.10 in SSE 1.0 mph 1.0 mph 98 % 0.00 in
07:40 62.1 °F 61.5 °F 30.11 in Calm   1.0 mph 98 % 0.00 in
07:44 62.1 °F 61.5 °F 30.11 in Calm   1.0 mph 98 % 0.00 in
07:49 62.1 °F 61.5 °F 30.11 in Calm   1.0 mph 98 % 0.00 in
08:00 62.6 °F 62.1 °F 30.11 in SE 1.0 mph 2.0 mph 98 % 0.00 in
08:05 63.1 °F 62.8 °F 30.11 in Calm   2.0 mph 99 % 0.00 in
08:10 63.7 °F 63.1 °F 30.11 in Calm   2.0 mph 98 % 0.00 in
08:15 64.0 °F 63.5 °F 30.11 in South 1.0 mph 2.0 mph 98 % 0.00 in
08:20 64.4 °F 63.9 °F 30.12 in SSE 2.0 mph 2.0 mph 98 % 0.00 in
08:25 64.9 °F 64.4 °F 30.12 in SSW 2.0 mph 2.0 mph 98 % 0.00 in
08:30 65.1 °F 64.6 °F 30.12 in Calm   2.0 mph 98 % 0.00 in
08:35 65.5 °F 64.9 °F 30.12 in SSW 1.0 mph 3.0 mph 98 % 0.01 in
08:40 65.8 °F 64.9 °F 30.12 in SSW 3.0 mph 4.0 mph 97 % 0.01 in
08:41 65.8 °F 64.9 °F 30.12 in SW 3.0 mph 4.0 mph 97 % 0.01 in
08:46 66.0 °F 65.1 °F 30.12 in South 1.0 mph 6.0 mph 97 % 0.01 in
08:51 66.7 °F 65.8 °F 30.12 in SSW 3.0 mph 6.0 mph 97 % 0.01 in
08:56 67.3 °F 66.0 °F 30.12 in SSW 3.0 mph 6.0 mph 96 % 0.01 in
09:01 67.5 °F 66.0 °F 30.12 in SSW 3.0 mph 6.0 mph 95 % 0.01 in
09:06 67.8 °F 66.0 °F 30.13 in South 2.0 mph 6.0 mph 94 % 0.01 in
09:11 68.5 °F 66.4 °F 30.12 in SSW 5.0 mph 8.0 mph 93 % 0.01 in
09:12 68.5 °F 66.2 °F 30.12 in SSW 4.0 mph 8.0 mph 92 % 0.01 in
09:17 69.1 °F 66.4 °F 30.13 in SE 5.0 mph 8.0 mph 91 % 0.01 in
09:22 69.4 °F 66.4 °F 30.12 in SW 3.0 mph 8.0 mph 90 % 0.01 in
09:27 70.2 °F 66.4 °F 30.12 in SSE 3.0 mph 8.0 mph 88 % 0.01 in
09:32 70.9 °F 66.7 °F 30.12 in SW 7.0 mph 7.0 mph 87 % 0.00 in
09:37 71.2 °F 66.6 °F 30.12 in South 4.0 mph 9.0 mph 85 % 0.00 in
09:42 71.8 °F 66.4 °F 30.12 in SSW 2.0 mph 10.0 mph 83 % 0.00 in
09:47 72.3 °F 66.2 °F 30.12 in SSW 4.0 mph 10.0 mph 81 % 0.00 in
09:53 72.9 °F 66.7 °F 30.12 in South 3.0 mph 11.0 mph 81 % 0.00 in
09:58 73.0 °F 66.2 °F 30.13 in SE 5.0 mph 11.0 mph 79 % 0.00 in
10:03 73.4 °F 66.2 °F 30.13 in SW 8.0 mph 11.0 mph 78 % 0.00 in
10:08 73.2 °F 65.1 °F 30.13 in South 7.0 mph 12.0 mph 76 % 0.00 in
10:13 73.6 °F 65.5 °F 30.14 in SSW 5.0 mph 12.0 mph 76 % 0.00 in
10:18 74.1 °F 66.0 °F 30.14 in SSE 4.0 mph 12.0 mph 76 % 0.00 in
10:23 74.3 °F 65.8 °F 30.14 in South 4.0 mph 15.0 mph 75 % 0.00 in
10:28 74.3 °F 65.1 °F 30.14 in SSW 10.0 mph 15.0 mph 73 % 0.00 in
10:33 74.1 °F 64.9 °F 30.14 in South 5.0 mph 15.0 mph 73 % 0.00 in
10:38 74.1 °F 64.9 °F 30.14 in SSW 6.0 mph 13.0 mph 73 % 0.00 in
10:43 74.3 °F 65.1 °F 30.14 in SW 6.0 mph 15.0 mph 73 % 0.00 in
10:48 74.8 °F 65.1 °F 30.14 in East 6.0 mph 15.0 mph 72 % 0.00 in
10:53 75.0 °F 65.3 °F 30.14 in SE 4.0 mph 15.0 mph 72 % 0.00 in
10:58 75.6 °F 65.5 °F 30.14 in SSW 4.0 mph 12.0 mph 71 % 0.00 in
11:03 75.9 °F 66.2 °F 30.14 in SSE 5.0 mph 12.0 mph 72 % 0.00 in
11:08 76.3 °F 64.9 °F 30.14 in SSE 7.0 mph 12.0 mph 68 % 0.00 in
11:13 76.3 °F 64.9 °F 30.14 in SE 3.0 mph 11.0 mph 68 % 0.00 in
11:18 76.8 °F 64.9 °F 30.14 in SW 4.0 mph 11.0 mph 67 % 0.00 in
11:23 77.4 °F 65.1 °F 30.14 in WSW 6.0 mph 12.0 mph 66 % 0.00 in
11:28 77.5 °F 65.3 °F 30.14 in SSW 2.0 mph 12.0 mph 66 % 0.00 in
11:33 78.1 °F 65.8 °F 30.14 in Calm   12.0 mph 66 % 0.00 in
11:38 78.3 °F 65.1 °F 30.14 in SW 7.0 mph 11.0 mph 64 % 0.00 in
11:43 78.4 °F 65.7 °F 30.14 in SSW 5.0 mph 11.0 mph 65 % 0.00 in
11:48 78.8 °F 65.7 °F 30.13 in SSE 4.0 mph 9.0 mph 64 % 0.00 in
11:53 79.0 °F 65.8 °F 30.13 in South 6.0 mph 9.0 mph 64 % 0.00 in
11:58 79.0 °F 63.9 °F 30.13 in SSW 7.0 mph 9.0 mph 60 % 0.00 in
12:03 78.6 °F 64.9 °F 30.13 in SE 3.0 mph 10.0 mph 63 % 0.00 in
12:08 79.0 °F 64.8 °F 30.13 in SW 7.0 mph 11.0 mph 62 % 0.00 in
12:13 79.0 °F 64.8 °F 30.13 in SE 4.0 mph 11.0 mph 62 % 0.00 in
12:19 79.2 °F 64.0 °F 30.12 in ESE 4.0 mph 11.0 mph 60 % 0.00 in
12:24 79.3 °F 63.7 °F 30.12 in SSW 5.0 mph 11.0 mph 59 % 0.00 in
12:29 79.2 °F 63.7 °F 30.12 in SSW 4.0 mph 11.0 mph 59 % 0.00 in
12:34 79.9 °F 63.9 °F 30.12 in South 4.0 mph 12.0 mph 58 % 0.00 in
12:39 80.2 °F 65.5 °F 30.12 in SSE 5.0 mph 12.0 mph 61 % 0.00 in
12:44 80.6 °F 64.0 °F 30.12 in ESE 7.0 mph 12.0 mph 57 % 0.00 in
12:49 80.4 °F 63.9 °F 30.11 in SSE 4.0 mph 11.0 mph 57 % 0.00 in
12:54 80.4 °F 64.8 °F 30.11 in South 7.0 mph 11.0 mph 59 % 0.00 in
12:59 80.4 °F 63.3 °F 30.11 in SSW 5.0 mph 11.0 mph 56 % 0.00 in
13:04 81.1 °F 63.0 °F 30.11 in South 6.0 mph 11.0 mph 54 % 0.00 in
13:09 81.1 °F 63.5 °F 30.11 in SSW 5.0 mph 10.0 mph 55 % 0.00 in
13:14 81.0 °F 63.3 °F 30.10 in SW 9.0 mph 11.0 mph 55 % 0.00 in
13:19 81.1 °F 63.0 °F 30.10 in South 7.0 mph 12.0 mph 54 % 0.00 in
13:24 81.3 °F 63.1 °F 30.10 in South 4.0 mph 12.0 mph 54 % 0.00 in
13:29 81.5 °F 64.2 °F 30.09 in SE 7.0 mph 12.0 mph 56 % 0.00 in
13:34 81.7 °F 63.0 °F 30.09 in SW 9.0 mph 12.0 mph 53 % 0.00 in
13:39 81.9 °F 63.0 °F 30.09 in WSW 6.0 mph 12.0 mph 53 % 0.00 in
13:44 82.0 °F 62.6 °F 30.09 in SSE 2.0 mph 12.0 mph 52 % 0.00 in
13:49 82.6 °F 63.1 °F 30.09 in SSW 3.0 mph 12.0 mph 52 % 0.00 in
13:54 82.8 °F 64.4 °F 30.08 in SW 10.0 mph 11.0 mph 54 % 0.00 in
13:59 82.4 °F 64.0 °F 30.08 in South 2.0 mph 11.0 mph 54 % 0.00 in
14:04 82.9 °F 64.6 °F 30.08 in SE 5.0 mph 11.0 mph 54 % 0.00 in
14:09 82.8 °F 63.9 °F 30.08 in WSW 7.0 mph 10.0 mph 53 % 0.00 in
14:14 82.8 °F 63.9 °F 30.07 in SSW 6.0 mph 10.0 mph 53 % 0.00 in
14:19 82.9 °F 65.1 °F 30.07 in SW 2.0 mph 11.0 mph 55 % 0.00 in
14:24 83.5 °F 64.0 °F 30.07 in South 9.0 mph 11.0 mph 52 % 0.00 in
14:30 83.5 °F 65.1 °F 30.07 in South 6.0 mph 15.0 mph 54 % 0.00 in
14:35 83.5 °F 63.5 °F 30.06 in SE 4.0 mph 15.0 mph 51 % 0.00 in
14:40 83.7 °F 65.3 °F 30.06 in SSE 8.0 mph 15.0 mph 54 % 0.00 in
14:45 83.7 °F 63.0 °F 30.06 in South 4.0 mph 14.0 mph 50 % 0.00 in
14:50 83.8 °F 64.9 °F 30.06 in SW 2.0 mph 14.0 mph 53 % 0.00 in
14:55 84.0 °F 63.9 °F 30.05 in South 5.0 mph 14.0 mph 51 % 0.00 in
15:00 84.0 °F 64.6 °F 30.05 in South 3.0 mph 12.0 mph 52 % 0.00 in
15:05 83.8 °F 62.1 °F 30.05 in SE 6.0 mph 16.0 mph 48 % 0.00 in
15:10 83.7 °F 61.9 °F 30.05 in ESE 6.0 mph 16.0 mph 48 % 0.00 in
15:15 83.8 °F 62.1 °F 30.05 in South 4.0 mph 14.0 mph 48 % 0.00 in
15:20 84.2 °F 63.5 °F 30.05 in SW 5.0 mph 13.0 mph 50 % 0.00 in
15:25 84.2 °F 63.0 °F 30.04 in SE 5.0 mph 12.0 mph 49 % 0.00 in
15:30 84.2 °F 63.5 °F 30.04 in SSE 6.0 mph 12.0 mph 50 % 0.00 in
15:35 84.6 °F 63.9 °F 30.04 in SW 4.0 mph 12.0 mph 50 % 0.00 in
15:40 84.9 °F 63.0 °F 30.04 in SE 4.0 mph 10.0 mph 48 % 0.00 in
15:45 85.3 °F 63.3 °F 30.04 in SSE 5.0 mph 10.0 mph 48 % 0.00 in
15:50 85.3 °F 64.6 °F 30.04 in SSW 5.0 mph 10.0 mph 50 % 0.00 in
15:55 85.5 °F 65.8 °F 30.04 in SSW 13.0 mph 13.0 mph 52 % 0.00 in
16:00 85.3 °F 62.8 °F 30.03 in West 5.0 mph 13.0 mph 47 % 0.00 in
16:06 85.3 °F 62.2 °F 30.03 in SW 6.0 mph 13.0 mph 46 % 0.00 in
16:10 84.9 °F 62.4 °F 30.03 in South 4.0 mph 13.0 mph 47 % 0.00 in
16:15 84.9 °F 60.6 °F 30.03 in SSW 5.0 mph 13.0 mph 44 % 0.00 in
16:20 85.3 °F 62.2 °F 30.03 in SW 3.0 mph 12.0 mph 46 % 0.00 in
16:25 85.8 °F 63.3 °F 30.03 in SSE 3.0 mph 11.0 mph 47 % 0.00 in
16:30 85.8 °F 60.8 °F 30.03 in SSE 10.0 mph 10.0 mph 43 % 0.00 in
16:35 85.5 °F 60.4 °F 30.03 in ESE 6.0 mph 12.0 mph 43 % 0.00 in
16:40 84.9 °F 59.9 °F 30.02 in SSE 5.0 mph 12.0 mph 43 % 0.00 in
16:45 84.7 °F 60.4 °F 30.02 in SSE 9.0 mph 12.0 mph 44 % 0.00 in
16:50 84.7 °F 59.7 °F 30.02 in SW 4.0 mph 12.0 mph 43 % 0.00 in
16:55 84.7 °F 59.7 °F 30.02 in SE 7.0 mph 14.0 mph 43 % 0.00 in
17:00 84.6 °F 60.3 °F 30.02 in SSE 6.0 mph 14.0 mph 44 % 0.00 in
17:05 84.6 °F 60.3 °F 30.02 in SSW 9.0 mph 14.0 mph 44 % 0.00 in
17:10 84.4 °F 60.1 °F 30.02 in SSE 7.0 mph 12.0 mph 44 % 0.00 in
17:15 84.4 °F 59.4 °F 30.02 in SSE 6.0 mph 14.0 mph 43 % 0.00 in
17:20 84.6 °F 59.0 °F 30.02 in SSE 8.0 mph 14.0 mph 42 % 0.00 in
17:25 84.6 °F 59.5 °F 30.02 in South 3.0 mph 14.0 mph 43 % 0.00 in
17:30 84.4 °F 59.4 °F 30.01 in SSW 9.0 mph 12.0 mph 43 % 0.00 in
17:35 84.4 °F 59.4 °F 30.01 in SSW 4.0 mph 11.0 mph 43 % 0.00 in
17:40 83.8 °F 58.3 °F 30.01 in SSE 8.0 mph 11.0 mph 42 % 0.00 in
17:46 83.8 °F 59.5 °F 30.02 in SE 6.0 mph 12.0 mph 44 % 0.00 in
17:50 83.8 °F 60.3 °F 30.02 in South 5.0 mph 12.0 mph 45 % 0.00 in
17:55 83.7 °F 59.4 °F 30.01 in South 6.0 mph 12.0 mph 44 % 0.00 in
18:00 83.5 °F 59.4 °F 30.02 in SE 6.0 mph 12.0 mph 44 % 0.00 in
18:06 83.5 °F 58.6 °F 30.01 in SSE 3.0 mph 10.0 mph 43 % 0.00 in
18:11 83.3 °F 59.7 °F 30.01 in SE 3.0 mph 11.0 mph 45 % 0.00 in
18:16 83.3 °F 60.4 °F 30.01 in SE 5.0 mph 11.0 mph 46 % 0.00 in
18:21 83.1 °F 59.0 °F 30.01 in SE 6.0 mph 11.0 mph 44 % 0.00 in
18:26 82.9 °F 58.8 °F 30.01 in SSW 3.0 mph 11.0 mph 44 % 0.00 in
18:31 82.9 °F 59.4 °F 30.01 in SSW 4.0 mph 11.0 mph 45 % 0.00 in
18:36 82.8 °F 59.2 °F 30.01 in South 7.0 mph 11.0 mph 45 % 0.00 in
18:41 82.6 °F 59.7 °F 30.01 in SSE 8.0 mph 11.0 mph 46 % 0.00 in
18:46 82.2 °F 60.6 °F 30.01 in SSE 9.0 mph 11.0 mph 48 % 0.00 in
18:56 81.7 °F 60.1 °F 30.01 in SSE 6.0 mph 10.0 mph 48 % 0.00 in
19:01 81.5 °F 60.4 °F 30.01 in South 3.0 mph 11.0 mph 49 % 0.00 in
19:06 81.3 °F 59.7 °F 30.01 in SE 7.0 mph 11.0 mph 48 % 0.00 in
19:11 81.0 °F 60.1 °F 30.01 in SSE 5.0 mph 11.0 mph 49 % 0.00 in
19:16 80.4 °F 60.6 °F 30.01 in South 6.0 mph 10.0 mph 51 % 0.00 in
19:21 80.1 °F 60.8 °F 30.01 in SSW 3.0 mph 12.0 mph 52 % 0.00 in
19:26 79.7 °F 60.4 °F 30.01 in SSE 5.0 mph 12.0 mph 52 % 0.00 in
19:31 79.3 °F 60.3 °F 30.01 in South 4.0 mph 12.0 mph 52 % 0.00 in
19:36 79.0 °F 60.4 °F 30.01 in SSW 2.0 mph 9.0 mph 53 % 0.00 in
19:41 78.4 °F 60.4 °F 30.01 in SE 3.0 mph 9.0 mph 54 % 0.00 in
19:46 78.1 °F 60.1 °F 30.02 in SSE 3.0 mph 7.0 mph 54 % 0.00 in
19:51 77.7 °F 59.7 °F 30.02 in South 5.0 mph 7.0 mph 54 % 0.00 in
19:56 77.5 °F 60.1 °F 30.02 in South 2.0 mph 7.0 mph 55 % 0.00 in
20:01 77.4 °F 59.9 °F 30.03 in SSW 3.0 mph 9.0 mph 55 % 0.00 in
20:06 77.2 °F 59.7 °F 30.03 in SSW 2.0 mph 9.0 mph 55 % 0.00 in
20:11 76.8 °F 59.9 °F 30.03 in South 2.0 mph 9.0 mph 56 % 0.00 in
20:16 76.5 °F 60.1 °F 30.03 in SSW 2.0 mph 7.0 mph 57 % 0.00 in
20:21 76.1 °F 60.3 °F 30.04 in SE 2.0 mph 4.0 mph 58 % 0.00 in
20:26 75.9 °F 60.1 °F 30.04 in South 1.0 mph 4.0 mph 58 % 0.00 in
20:31 75.7 °F 60.4 °F 30.04 in SSW 1.0 mph 4.0 mph 59 % 0.00 in
20:36 75.4 °F 60.4 °F 30.04 in SSW 1.0 mph 4.0 mph 60 % 0.00 in
20:41 75.0 °F 60.6 °F 30.04 in SSW 2.0 mph 4.0 mph 61 % 0.00 in
20:46 74.8 °F 61.0 °F 30.04 in SSW 2.0 mph 3.0 mph 62 % 0.00 in
20:51 74.7 °F 60.8 °F 30.04 in SSW 2.0 mph 4.0 mph 62 % 0.00 in
20:56 74.5 °F 61.0 °F 30.05 in South 1.0 mph 4.0 mph 63 % 0.00 in
21:01 74.1 °F 61.2 °F 30.05 in South 2.0 mph 4.0 mph 64 % 0.00 in
21:06 73.9 °F 61.0 °F 30.05 in SSE 1.0 mph 3.0 mph 64 % 0.00 in
21:11 73.8 °F 61.3 °F 30.05 in South 2.0 mph 3.0 mph 65 % 0.00 in
21:16 73.6 °F 61.5 °F 30.05 in South 1.0 mph 3.0 mph 66 % 0.00 in
21:21 73.4 °F 62.2 °F 30.05 in SSW 3.0 mph 4.0 mph 68 % 0.00 in
21:26 73.4 °F 62.6 °F 30.05 in SSW 3.0 mph 7.0 mph 69 % 0.00 in
21:31 73.6 °F 63.1 °F 30.05 in South 4.0 mph 8.0 mph 70 % 0.00 in
21:36 73.6 °F 63.7 °F 30.05 in ESE 2.0 mph 8.0 mph 71 % 0.00 in
21:41 73.6 °F 64.0 °F 30.05 in SSW 3.0 mph 8.0 mph 72 % 0.00 in
21:51 73.2 °F 64.0 °F 30.06 in SSW 3.0 mph 8.0 mph 73 % 0.00 in
21:57 73.2 °F 64.0 °F 30.06 in SE 3.0 mph 8.0 mph 73 % 0.00 in
22:02 73.0 °F 63.9 °F 30.06 in SSE 3.0 mph 8.0 mph 73 % 0.00 in
22:07 72.7 °F 63.5 °F 30.06 in South 2.0 mph 5.0 mph 73 % 0.00 in
22:12 72.3 °F 63.5 °F 30.06 in SSW 2.0 mph 5.0 mph 74 % 0.00 in
22:17 72.1 °F 63.3 °F 30.06 in South 3.0 mph 5.0 mph 74 % 0.00 in
22:22 72.0 °F 63.7 °F 30.06 in SE 1.0 mph 5.0 mph 75 % 0.00 in
22:27 71.8 °F 63.9 °F 30.06 in South 2.0 mph 6.0 mph 76 % 0.00 in
22:32 71.8 °F 64.6 °F 30.07 in SSE 5.0 mph 7.0 mph 78 % 0.00 in
22:37 71.6 °F 64.8 °F 30.06 in SW 6.0 mph 7.0 mph 79 % 0.00 in
22:42 71.6 °F 64.8 °F 30.06 in SSE 5.0 mph 9.0 mph 79 % 0.00 in
22:47 71.4 °F 64.9 °F 30.06 in South 2.0 mph 9.0 mph 80 % 0.00 in
22:52 71.4 °F 65.3 °F 30.06 in SSW 5.0 mph 9.0 mph 81 % 0.00 in
23:02 71.1 °F 64.9 °F 30.07 in South 2.0 mph 8.0 mph 81 % 0.00 in
23:07 70.9 °F 65.1 °F 30.07 in SW 3.0 mph 8.0 mph 82 % 0.00 in
23:12 70.7 °F 65.3 °F 30.07 in SE 4.0 mph 8.0 mph 83 % 0.00 in
23:17 70.7 °F 65.7 °F 30.06 in SSW 2.0 mph 9.0 mph 84 % 0.00 in
23:22 70.5 °F 65.5 °F 30.06 in South 4.0 mph 9.0 mph 84 % 0.00 in
23:27 70.5 °F 65.8 °F 30.07 in SE 4.0 mph 9.0 mph 85 % 0.00 in
23:32 70.3 °F 65.7 °F 30.07 in SSE 1.0 mph 9.0 mph 85 % 0.00 in
23:37 70.2 °F 65.8 °F 30.07 in SSE 3.0 mph 8.0 mph 86 % 0.00 in
23:42 70.2 °F 65.8 °F 30.07 in SSE 2.0 mph 6.0 mph 86 % 0.00 in
23:47 70.0 °F 66.0 °F 30.07 in SSE 3.0 mph 6.0 mph 87 % 0.00 in
23:52 69.8 °F 65.8 °F 30.08 in SSE 1.0 mph 6.0 mph 87 % 0.00 in
Spring, Texas: Villages of Bridgestone
Compliments of Weather Underground - 2.75 mb

Script developed by  Jim McMurry - jmcmurry@mwt.net Adapted for the template by  Wim van der Kuil - Leuven-Template.eu

You find our weather info also at:

UK Metoffice

WeatherCloud

Weather Underground

Mid-South Weather Network

AWEKAS

Citizen Weather Observer Program (CWOP)

HAMweather, WeatherForYou, PWS Weather

Equipment we use:

Weather-station
Davis Vantage Vue

Weather-program
Meteohub

Weather-server
Debian 7.9 x86 (Guest)

Provider
DreamHost

Davis Vantage Vue

Meteohub

Debian 7.9 x86 (Guest)

DreamHost